• En España
  • Lista de países
  • Para 7 días
  • Temperatura del agua
  • Mapa Satelital
  • El tiempo en el mapa
  • Informadores
  • user-avatar
    Iniciar sesión

    Tiempo cada hora Lyadovo

    Hoy, 22 Octubre, Lunes

    Tiempo Temperatura Precipitaciones Viento Presión Humedad
    00:00 +1°C° 0 mm 1 mps 757 mmHg 92%
    01:00 0°C° 0 mm 1 mps 757 mmHg 92%
    02:00 0°C° 0 mm 1 mps 757 mmHg 93%
    03:00 0°C° 0 mm 1 mps 757 mmHg 93%
    04:00 +1°C° 0 mm 1 mps 757 mmHg 96%
    05:00 +1°C° 0 mm 1 mps 757 mmHg 96%
    06:00 0°C° 0 mm 1 mps 757 mmHg 95%
    07:00 -2°C° 0 mm 2 mps 757 mmHg 94%
    08:00 -1°C° 0 mm 2 mps 757 mmHg 89%
    09:00 +1°C° 0 mm 2 mps 757 mmHg 83%
    10:00 +1°C° 0 mm 3 mps 757 mmHg 77%
    11:00 +1°C° 0 mm 3 mps 756 mmHg 74%
    12:00 +1°C° 0 mm 4 mps 756 mmHg 70%
    13:00 +1°C° 0 mm 4 mps 755 mmHg 67%
    14:00 +1°C° 0 mm 4 mps 755 mmHg 68%
    15:00 +1°C° 0 mm 4 mps 754 mmHg 70%
    16:00 +1°C° 0 mm 4 mps 754 mmHg 71%
    17:00 +1°C° 0 mm 4 mps 753 mmHg 72%
    18:00 0°C° 0 mm 5 mps 752 mmHg 73%
    19:00 0°C° 0 mm 5 mps 752 mmHg 74%
    20:00 0°C° 0 mm 5 mps 751 mmHg 76%
    21:00 +1°C° 0 mm 6 mps 751 mmHg 78%
    22:00 +1°C° 0 mm 6 mps 750 mmHg 80%
    23:00 +1°C° 0 mm 6 mps 750 mmHg 80%

    Mañana, 23 Octubre, Martes

    Tiempo Temperatura Precipitaciones Viento Presión Humedad
    00:00 +1°C° 0 mm 6 mps 749 mmHg 80%
    01:00 +1°C° 0 mm 6 mps 749 mmHg 80%
    02:00 +1°C° 0 mm 6 mps 748 mmHg 81%
    03:00 +1°C° 0 mm 6 mps 748 mmHg 82%
    04:00 +1°C° 0 mm 6 mps 748 mmHg 82%
    05:00 +1°C° 0 mm 6 mps 747 mmHg 84%
    06:00 +1°C° 0 mm 5 mps 747 mmHg 85%
    07:00 0°C° 0 mm 5 mps 747 mmHg 86%
    08:00 +1°C° 0 mm 5 mps 747 mmHg 84%
    09:00 +1°C° 0 mm 6 mps 747 mmHg 83%
    10:00 +2°C° 0 mm 6 mps 747 mmHg 81%
    11:00 +2°C° 0 mm 6 mps 746 mmHg 82%
    12:00 +3°C° 0 mm 5 mps 746 mmHg 83%
    13:00 +3°C° 0 mm 5 mps 746 mmHg 84%
    14:00 +5°C° 0.2 mm 5 mps 745 mmHg 84%
    15:00 +5°C° 0.2 mm 5 mps 745 mmHg 85%
    16:00 +4°C° 0.2 mm 6 mps 745 mmHg 85%
    17:00 +4°C° 0.2 mm 6 mps 744 mmHg 84%
    18:00 +4°C° 0.2 mm 6 mps 744 mmHg 83%
    19:00 +4°C° 0.2 mm 6 mps 743 mmHg 82%
    20:00 +4°C° 0.3 mm 6 mps 743 mmHg 81%
    21:00 +4°C° 0.3 mm 6 mps 743 mmHg 81%
    22:00 +4°C° 0.3 mm 6 mps 743 mmHg 80%
    23:00 +4°C° 0.4 mm 6 mps 742 mmHg 81%

    Pasado mañana, 24 Octubre, Miércoles

    Tiempo Temperatura Precipitaciones Viento Presión Humedad
    00:00 +4°C° 0.4 mm 6 mps 742 mmHg 82%
    01:00 +3°C° 0.4 mm 5 mps 742 mmHg 84%
    02:00 +3°C° 0.2 mm 5 mps 742 mmHg 84%
    03:00 +3°C° 0.2 mm 5 mps 741 mmHg 85%
    04:00 +4°C° 0.2 mm 4 mps 741 mmHg 86%
    05:00 +4°C° 0.1 mm 4 mps 741 mmHg 87%
    06:00 +4°C° 0.1 mm 4 mps 741 mmHg 88%
    07:00 +5°C° 0.1 mm 4 mps 741 mmHg 89%
    08:00 +5°C° 0.1 mm 4 mps 741 mmHg 88%
    09:00 +5°C° 0.1 mm 4 mps 741 mmHg 88%
    10:00 +5°C° 0.1 mm 3 mps 741 mmHg 88%
    11:00 +7°C° 0 mm 3 mps 741 mmHg 88%
    12:00 +7°C° 0 mm 3 mps 741 mmHg 87%
    13:00 +7°C° 0 mm 3 mps 741 mmHg 86%
    14:00 +7°C° 0 mm 3 mps 741 mmHg 88%
    15:00 +7°C° 0 mm 3 mps 741 mmHg 89%
    16:00 +7°C° 0 mm 3 mps 741 mmHg 90%
    17:00 +7°C° 0.2 mm 3 mps 741 mmHg 91%
    18:00 +7°C° 0.2 mm 3 mps 741 mmHg 92%
    19:00 +7°C° 0.2 mm 3 mps 741 mmHg 93%
    20:00 +8°C° 0.1 mm 3 mps 741 mmHg 93%
    21:00 +8°C° 0.1 mm 3 mps 741 mmHg 92%
    22:00 +8°C° 0.1 mm 3 mps 741 mmHg 92%
    23:00 +7°C° 0 mm 3 mps 741 mmHg 92%

    25 Octubre, Jueves

    Tiempo Temperatura Precipitaciones Viento Presión Humedad
    00:00 +7°C° 0 mm 3 mps 741 mmHg 92%
    01:00 +5°C° 0 mm 3 mps 741 mmHg 93%
    02:00 +5°C° 0 mm 3 mps 741 mmHg 93%
    03:00 +5°C° 0 mm 3 mps 742 mmHg 94%
    04:00 +5°C° 0 mm 3 mps 742 mmHg 95%
    05:00 +4°C° 0 mm 3 mps 742 mmHg 95%
    06:00 +4°C° 0 mm 3 mps 742 mmHg 94%
    07:00 +4°C° 0 mm 3 mps 742 mmHg 94%
    08:00 +5°C° 0 mm 3 mps 742 mmHg 91%
    09:00 +6°C° 0 mm 4 mps 742 mmHg 87%
    10:00 +7°C° 0 mm 4 mps 742 mmHg 83%
    11:00 +8°C° 0 mm 4 mps 742 mmHg 80%
    12:00 +10°C° 0 mm 4 mps 742 mmHg 77%
    13:00 +10°C° 0 mm 4 mps 742 mmHg 73%
    14:00 +9°C° 0.3 mm 5 mps 741 mmHg 77%
    15:00 +8°C° 0.3 mm 5 mps 741 mmHg 81%
    16:00 +8°C° 0.3 mm 5 mps 741 mmHg 85%
    17:00 +8°C° 0.2 mm 5 mps 741 mmHg 84%
    18:00 +8°C° 0.2 mm 4 mps 740 mmHg 83%
    19:00 +10°C° 0.2 mm 4 mps 740 mmHg 83%
    20:00 +10°C° 0.1 mm 4 mps 740 mmHg 80%
    21:00 +9°C° 0.1 mm 5 mps 739 mmHg 76%
    22:00 +9°C° 0.1 mm 5 mps 739 mmHg 73%
    23:00 +9°C° 0 mm 5 mps 739 mmHg 71%

    26 Octubre, Viernes

    Tiempo Temperatura Precipitaciones Viento Presión Humedad
    00:00 +10°C° 0 mm 5 mps 738 mmHg 68%
    01:00 +10°C° 0 mm 5 mps 738 mmHg 66%
    02:00 +10°C° 0 mm 5 mps 738 mmHg 65%
    03:00 +10°C° 0 mm 5 mps 737 mmHg 65%
    04:00 +9°C° 0 mm 5 mps 737 mmHg 64%
    05:00 +9°C° 0 mm 5 mps 736 mmHg 65%
    06:00 +9°C° 0 mm 5 mps 736 mmHg 66%
    07:00 +9°C° 0 mm 5 mps 735 mmHg 67%
    08:00 +9°C° 0 mm 5 mps 735 mmHg 66%
    09:00 +10°C° 0 mm 5 mps 735 mmHg 64%
    10:00 +10°C° 0 mm 5 mps 734 mmHg 62%
    11:00 +10°C° 0.2 mm 5 mps 734 mmHg 65%
    12:00 +10°C° 0.2 mm 5 mps 734 mmHg 67%
    13:00 +10°C° 0.2 mm 5 mps 734 mmHg 70%
    14:00 +10°C° 1.1 mm 4 mps 734 mmHg 75%
    15:00 +8°C° 1.1 mm 4 mps 734 mmHg 81%
    16:00 +8°C° 1.1 mm 4 mps 734 mmHg 87%
    17:00 +8°C° 0.5 mm 3 mps 734 mmHg 88%
    18:00 +8°C° 0.5 mm 3 mps 734 mmHg 88%
    19:00 +7°C° 0.5 mm 3 mps 735 mmHg 89%
    20:00 +7°C° 0 mm 3 mps 735 mmHg 89%
    21:00 +5°C° 0 mm 3 mps 735 mmHg 89%
    22:00 +4°C° 0 mm 3 mps 735 mmHg 90%
    23:00 +4°C° 0 mm 3 mps 736 mmHg 89%

    27 Octubre, Sábado

    Tiempo Temperatura Precipitaciones Viento Presión Humedad
    00:00 +4°C° 0 mm 3 mps 736 mmHg 88%
    01:00 +3°C° 0 mm 3 mps 736 mmHg 88%
    02:00 +3°C° 0 mm 3 mps 737 mmHg 87%
    03:00 +3°C° 0 mm 3 mps 737 mmHg 87%
    04:00 +2°C° 0 mm 3 mps 737 mmHg 87%
    05:00 +2°C° 0 mm 3 mps 737 mmHg 87%
    06:00 +2°C° 0 mm 3 mps 737 mmHg 87%
    07:00 +2°C° 0 mm 3 mps 737 mmHg 87%
    08:00 +2°C° 0 mm 3 mps 737 mmHg 86%
    09:00 +1°C° 0 mm 4 mps 737 mmHg 84%
    10:00 +1°C° 0 mm 4 mps 737 mmHg 83%
    11:00 +3°C° 0.1 mm 4 mps 737 mmHg 79%
    12:00 +3°C° 0.1 mm 4 mps 738 mmHg 74%
    13:00 +2°C° 0.1 mm 5 mps 738 mmHg 70%
    14:00 +3°C° 0.1 mm 4 mps 738 mmHg 70%
    15:00 +3°C° 0.1 mm 4 mps 739 mmHg 71%
    16:00 +1°C° 0.1 mm 4 mps 739 mmHg 71%
    17:00 +1°C° 0 mm 4 mps 740 mmHg 72%
    18:00 0°C° 0 mm 4 mps 741 mmHg 74%
    19:00 0°C° 0 mm 4 mps 741 mmHg 75%
    20:00 0°C° 0 mm 4 mps 742 mmHg 76%
    21:00 -1°C° 0 mm 5 mps 742 mmHg 77%
    22:00 -1°C° 0 mm 5 mps 742 mmHg 78%
    23:00 -1°C° 0 mm 5 mps 743 mmHg 79%

    28 Octubre, Domingo

    Tiempo Temperatura Precipitaciones Viento Presión Humedad
    00:00 -1°C° 0 mm 5 mps 743 mmHg 80%
    01:00 -1°C° 0 mm 5 mps 744 mmHg 81%
    02:00 -2°C° 0 mm 5 mps 744 mmHg 81%
    03:00 -2°C° 0 mm 4 mps 745 mmHg 82%
    04:00 -2°C° 0 mm 4 mps 746 mmHg 83%
    05:00 -2°C° 0 mm 4 mps 746 mmHg 82%
    06:00 -2°C° 0 mm 5 mps 746 mmHg 82%
    07:00 -2°C° 0 mm 5 mps 747 mmHg 82%
    08:00 -2°C° 0 mm 5 mps 747 mmHg 80%
    09:00 -1°C° 0 mm 5 mps 747 mmHg 78%
    10:00 -1°C° 0 mm 5 mps 747 mmHg 76%
    11:00 -1°C° 0.2 mm 5 mps 747 mmHg 78%
    12:00 0°C° 0.2 mm 5 mps 747 mmHg 79%
    13:00 0°C° 0.2 mm 5 mps 747 mmHg 80%
    14:00 0°C° 0.4 mm 4 mps 746 mmHg 82%
    15:00 +1°C° 0.4 mm 4 mps 746 mmHg 83%
    16:00 +1°C° 0.4 mm 4 mps 746 mmHg 84%
    17:00 +1°C° 0.2 mm 4 mps 745 mmHg 86%
    18:00 +1°C° 0.2 mm 4 mps 745 mmHg 88%
    19:00 +1°C° 0.2 mm 4 mps 745 mmHg 89%
    20:00 +1°C° 0.2 mm 4 mps 746 mmHg 90%
    21:00 +3°C° 0.2 mm 3 mps 746 mmHg 91%
    22:00 +3°C° 0.2 mm 3 mps 746 mmHg 91%
    23:00 +3°C° 0.1 mm 3 mps 747 mmHg 92%
    Mostrar más